(706) 295-7835

For Pilots

METAR

KRMG 292253Z AUTO 29006KT 10SM FEW050 29/17 A2999 RMK AO2 SLP146 T02940172

Location & Communications

Get detailed information about the airport, provided by AirNav.

Pilot Services

We have fuel services, on-site repair and maintenance, 24-hour security and more.

Fuel Points

Russell Regional Airport is a Shell Aviation merchant and is proud to participate in the Shell Aero Class Rewards program!

Hangar Availability

RMG offers 66 various sized T-Hangars for tenants and visitors (upon availability). Below, you will find the sizes of the hangars offered at RMG. If […]

Today's Fuel Prices

Jet A $2.50 / gallon
AvGas (100LL) $4.50 / gallon
Self Serve AvGas $4.11 / gallon
Learn about fuel points program